Location: Bruchhof
(51.8738°N, 9.9256°E)
Time: 13:02:34
(UTC+00:00)

Cosmos 1603 - Visible Passes

Search period start: 15 May 2025 00:00
Search period end: 25 May 2025 00:00
Orbit: 831 x 857 km, 71.0° (Epoch: 14 May)

Date Brightness Start Highest point End Pass type
(mag) Time Alt. Az. Time Alt. Az. Time Alt. Az.
15 May 7.0 00:22:43 10° NNW 00:23:56 11° N 00:25:08 10° N visible
15 May 6.7 02:07:28 10° N 02:10:42 15° NNE 02:13:55 10° ENE visible
15 May 4.3 20:32:04 10° SW 20:37:41 62° NW 20:43:18 10° NNE visible
15 May 6.4 22:18:59 10° WNW 22:22:58 19° NNW 22:26:57 10° NNE visible
16 May 7.0 00:08:18 10° NNW 00:09:33 11° N 00:10:46 10° N visible
16 May 6.7 01:53:09 10° N 01:56:19 15° NNE 01:59:29 10° ENE visible
16 May 4.3 20:17:44 10° SW 20:23:21 64° NW 20:28:58 10° NNE visible
16 May 6.5 22:04:34 10° WNW 22:08:36 20° NNW 22:12:38 10° NNE visible
16 May 7.1 23:53:53 10° NNW 23:55:09 11° N 23:56:25 10° N visible
17 May 6.8 01:38:49 10° N 01:41:56 15° NNE 01:45:02 10° ENE visible
17 May 4.2 20:03:23 10° SW 20:09:01 66° NW 20:14:39 10° NNE visible
17 May 6.5 21:50:08 10° W 21:54:13 20° NNW 21:58:18 10° NNE visible
17 May 7.1 23:39:27 10° NNW 23:40:45 11° N 23:42:03 10° N visible
18 May 6.9 01:24:30 10° N 01:27:33 15° NNE 01:30:36 10° NE visible
18 May 4.2 19:49:02 10° SW 19:54:40 68° WNW 20:00:19 10° NNE visible
18 May 6.5 21:35:43 10° W 21:39:51 20° NNW 21:43:59 10° NNE visible
18 May 7.2 23:25:01 10° NNW 23:26:22 11° N 23:27:42 10° N visible
19 May 6.9 01:10:11 10° N 01:13:10 14° NNE 01:16:09 10° NE visible
19 May 6.5 21:21:18 10° W 21:25:29 21° NNW 21:29:39 10° NNE visible
19 May 7.2 23:10:35 10° NNW 23:11:59 11° N 23:13:22 10° N visible
20 May 7.0 00:55:51 10° N 00:58:47 14° NNE 01:01:42 10° NE visible
20 May 6.5 21:06:54 10° W 21:11:07 21° NW 21:15:20 10° NNE visible
20 May 7.3 22:56:09 10° NNW 22:57:35 11° N 22:59:00 10° N visible
21 May 7.0 00:41:32 10° N 00:44:25 14° NNE 00:47:16 10° NE visible
21 May 5.6 02:25:04 10° NNW 02:30:15 36° NE 02:35:25 10° ESE visible
21 May 6.5 20:52:28 10° W 20:56:44 21° NW 21:01:01 10° NNE visible
21 May 7.3 22:41:44 10° NNW 22:43:12 11° N 22:44:40 10° N visible
22 May 7.0 00:27:13 10° N 00:30:02 14° NNE 00:32:50 10° NE visible
22 May 5.6 02:10:45 10° NNW 02:15:54 35° NE 02:21:02 10° ESE visible
22 May 6.6 20:38:04 10° W 20:42:23 22° NW 20:46:42 10° NNE visible
22 May 7.2 22:27:18 10° NNW 22:28:48 11° N 22:30:19 10° N visible
23 May 7.0 00:12:54 10° N 00:15:39 14° NNE 00:18:23 10° NE visible
23 May 5.6 01:56:25 10° NNW 02:01:33 35° NE 02:06:38 10° ESE visible
23 May 6.6 20:23:39 10° W 20:28:01 22° NW 20:32:22 10° NNE visible
23 May 7.2 22:12:51 10° NNW 22:14:25 11° N 22:15:59 10° N visible
23 May 6.9 23:58:35 10° N 00:01:16 13° NNE 00:03:56 10° NE visible
24 May 5.6 01:42:06 10° NNW 01:47:12 34° NE 01:52:15 10° ESE visible
24 May 6.6 20:09:14 10° W 20:13:39 23° NW 20:18:03 10° NNE visible
24 May 7.1 21:58:24 10° NNW 22:00:02 11° N 22:01:38 10° N visible
24 May 6.9 23:44:16 10° N 23:46:53 13° NNE 23:49:29 10° NE visible
